Weather History for Noatak, AK

Change the Weather History Date:

Friday, March 8, 2013

  Actual Average Record
Temperature  
Mean Temperature 29 °F -  
Max Temperature 32 °F 9 °F 32 °F (2013)
Min Temperature 26 °F -3 °F -32 °F (2006)
Degree Days  
Heating Degree Days 36    
Moisture  
Dew Point 22 °F    
Average Humidity 74    
Maximum Humidity 93    
Minimum Humidity 55    
Precipitation  
Precipitation 0.00 in - - ()
Sea Level Pressure  
Sea Level Pressure 29.36 in    
Wind  
Wind Speed 16 mph (ESE)    
Max Wind Speed 24 mph    
Max Gust Speed 31 mph    
Visibility 8 miles    
Events      
Averages and records for this station are not official NWS values.
T = Trace of Precipitation, MM = Missing Value Source: NWS Daily Summary

Daily Weather History Graph

Daily Weather History Graph

Search for Another Location

Airport:

Trip Planner

Search our weather history database for the weather conditions in past years. The results will help you decide how hot, cold, wet, or windy it might be!

Date:

Astronomy

Mar. 08, 2013 Rise Set
Actual Time 8:38 AM AKST 7:27 PM AKST
Civil Twilight 7:44 AM AKST 8:22 PM AKST
Nautical Twilight 6:40 AM AKST 9:26 PM AKST
Astronomical Twilight 5:30 AM AKST 10:37 PM AKST
Moon 7:44 AM AKST (3/8) 3:31 PM AKST (3/8)
Length of Visible Light 12h 37m
Length of Day
10h 49m
Waning Crescent, 11% of the Moon is Illuminated
Mar 8
Waning Crescent
Mar 11
New
Mar 19
First Quarter
Mar 27
Full
Apr 2
Last Quarter

Hourly Weather History & Observations

Time (AKST) Temp. Windchill Dew Point Humidity Pressure Visibility Wind Dir Wind Speed Gust Speed Precip Events Conditions
12:16 AM 28.4 °F 16.6 °F 23.0 °F 80% 29.31 in 10.0 mi ESE 16.1 mph 26.5 mph N/A   Overcast
12:56 AM 30.2 °F 16.5 °F 21.2 °F 69% 29.30 in 10.0 mi ESE 24.2 mph 31.1 mph N/A   Overcast
2:16 AM 28.4 °F 15.1 °F 23.0 °F 80% 29.30 in 7.0 mi ESE 20.7 mph 31.1 mph N/A   Mostly Cloudy
2:36 AM 30.2 °F 18.5 °F 23.0 °F 75% 29.32 in 10.0 mi SE 17.3 mph 27.6 mph N/A   Mostly Cloudy
3:16 AM 30.2 °F 24.3 °F 24.8 °F 80% 29.34 in 10.0 mi ESE 5.8 mph - N/A   Overcast
3:36 AM 30.2 °F 22.6 °F 24.8 °F 80% 29.34 in 10.0 mi East 8.1 mph - N/A   Overcast
3:56 AM 30.2 °F 19.8 °F 23.0 °F 75% 29.34 in 10.0 mi ESE 13.8 mph - N/A   Overcast
5:16 AM 30.2 °F 18.9 °F 19.4 °F 64% 29.32 in 10.0 mi ESE 16.1 mph 23.0 mph N/A   Overcast
5:36 AM 30.2 °F 19.3 °F 19.4 °F 64% 29.32 in 10.0 mi East 15.0 mph - N/A   Overcast
6:16 AM 30.2 °F 18.9 °F 19.4 °F 64% 29.32 in 10.0 mi ESE 16.1 mph 20.7 mph N/A   Mostly Cloudy
7:36 AM 26.6 °F 19.1 °F 19.4 °F 74% 29.35 in 10.0 mi South 6.9 mph - N/A   Clear
8:16 AM 26.6 °F 21.2 °F 17.6 °F 69% 29.36 in 10.0 mi SSE 4.6 mph - N/A   Unknown
9:36 AM 28.4 °F 17.0 °F 17.6 °F 64% 29.36 in 10.0 mi ESE 15.0 mph - N/A   Overcast
9:56 AM 30.2 °F 17.1 °F 17.6 °F 60% 29.35 in 10.0 mi East 21.9 mph 26.5 mph N/A   Overcast
10:16 AM 30.2 °F 20.2 °F 19.4 °F 64% 29.37 in 10.0 mi ESE 12.7 mph 20.7 mph N/A   Overcast
10:36 AM 32.0 °F 20.1 °F 19.4 °F 60% 29.36 in 10.0 mi East 19.6 mph 24.2 mph N/A   Overcast
10:56 AM 32.0 °F 21.6 °F 19.4 °F 60% 29.36 in 10.0 mi ESE 15.0 mph 21.9 mph N/A   Mostly Cloudy
11:16 AM 32.0 °F 21.6 °F 19.4 °F 60% 29.36 in 10.0 mi East 15.0 mph 20.7 mph N/A   Mostly Cloudy
12:16 PM 32.0 °F 24.2 °F 19.4 °F 60% 29.36 in 10.0 mi East 9.2 mph 18.4 mph N/A   Overcast
12:36 PM 32.0 °F 20.8 °F 17.6 °F 55% 29.36 in 10.0 mi ESE 17.3 mph 23.0 mph N/A   Unknown
1:16 PM 32.0 °F 21.2 °F 19.4 °F 60% 29.36 in 10.0 mi ESE 16.1 mph 24.2 mph N/A   Unknown
1:36 PM 32.0 °F 20.8 °F 21.2 °F 64% 29.36 in 10.0 mi ESE 17.3 mph 23.0 mph N/A   Overcast
1:56 PM 30.2 °F 17.8 °F 21.2 °F 69% 29.36 in 10.0 mi ESE 19.6 mph 27.6 mph N/A   Overcast
2:16 PM 30.2 °F 18.1 °F 23.0 °F 75% 29.37 in 10.0 mi ESE 18.4 mph 25.3 mph N/A   Overcast
2:36 PM 30.2 °F 17.4 °F 23.0 °F 75% 29.37 in 10.0 mi ESE 20.7 mph 29.9 mph N/A   Overcast
2:56 PM 30.2 °F 18.1 °F 23.0 °F 75% 29.37 in 10.0 mi ESE 18.4 mph 24.2 mph N/A   Overcast
3:16 PM 30.2 °F 18.1 °F 24.8 °F 80% 29.37 in 10.0 mi ESE 18.4 mph 23.0 mph N/A   Overcast
3:36 PM 30.2 °F 18.1 °F 23.0 °F 75% 29.37 in 10.0 mi ESE 18.4 mph 25.3 mph N/A   Overcast
3:56 PM 30.2 °F 18.5 °F 23.0 °F 75% 29.37 in 10.0 mi ESE 17.3 mph 23.0 mph N/A   Mostly Cloudy
4:36 PM 30.2 °F 18.1 °F 23.0 °F 75% 29.36 in 2.0 mi ESE 18.4 mph 27.6 mph N/A   Overcast
4:56 PM 30.2 °F 17.4 °F 23.0 °F 75% 29.36 in 2.5 mi ESE 20.7 mph 27.6 mph N/A   Overcast
5:16 PM 30.2 °F 19.8 °F 24.8 °F 80% 29.37 in 2.5 mi ESE 13.8 mph 25.3 mph N/A   Overcast
5:36 PM 30.2 °F 18.5 °F 24.8 °F 80% 29.37 in 5.0 mi ESE 17.3 mph 23.0 mph N/A   Overcast
6:16 PM 30.2 °F 17.8 °F 24.8 °F 80% 29.37 in 10.0 mi ESE 19.6 mph 24.2 mph N/A   Overcast
7:36 PM 30.2 °F 18.1 °F 23.0 °F 75% 29.38 in 1.5 mi ESE 18.4 mph 24.2 mph N/A   Overcast
7:56 PM 28.4 °F 16.2 °F 24.8 °F 86% 29.39 in 1.5 mi ESE 17.3 mph 24.2 mph N/A   Overcast
8:16 PM 28.4 °F 17.0 °F 24.8 °F 86% 29.39 in 5.0 mi ESE 15.0 mph 23.0 mph N/A   Overcast
8:56 PM 28.4 °F 15.1 °F 24.8 °F 86% 29.40 in 1.8 mi ESE 20.7 mph 28.8 mph N/A   Overcast
9:16 PM 28.4 °F 15.8 °F 24.8 °F 86% 29.40 in 2.0 mi ESE 18.4 mph 27.6 mph N/A   Overcast
9:36 PM 28.4 °F 16.2 °F 26.6 °F 93% 29.41 in 2.5 mi ESE 17.3 mph 23.0 mph N/A   Overcast
10:16 PM 28.4 °F 15.1 °F 24.8 °F 86% 29.41 in 2.5 mi ESE 20.7 mph 25.3 mph N/A   Overcast
10:56 PM 28.4 °F 15.4 °F 24.8 °F 86% 29.41 in 1.5 mi ESE 19.6 mph 26.5 mph N/A   Overcast
11:36 PM 28.4 °F 14.7 °F 26.6 °F 93% 29.42 in 1.8 mi ESE 21.9 mph 31.1 mph N/A   Overcast